{"data":{"norad_id":63323,"epoch":"2026-09-19T19:04:07.752288Z","epoch_age_seconds":219819,"freshness":"STALE","line1":"1 63323U 25057S   26262.79453417  .00014263  00000+0  52657-3 0  9997","line2":"2 63323  43.0017  14.6203 0002481 282.3419  77.7155 15.27596215 85428","mean_motion":15.27596215,"eccentricity":0.0002481,"inclination_deg":43.0017,"raan_deg":14.6203,"arg_perigee_deg":282.3419,"mean_anomaly_deg":77.7155,"bstar":0.00052657,"rev_number":8542,"period_min":94.265748098885,"perigee_km":481.29829470142,"apogee_km":484.70279115022,"semimajor_km":6861.1375429258,"source":"CELESTRAK","updated_at":"2026-09-21T09:00:34.970325Z"}}